Location: Newark
(42.9277°N, 71.8621°W)
Time: 05:04:30
(UTC+00:00)

Transit 2A Rocket - All Passes

Search period start: 06 June 2020 00:00
Search period end: 16 June 2020 00:00
Orbit: 585 x 918 km, 66.7° (Epoch: 05 June)

Date Brightness Start Highest point End Pass type
(mag) Time Alt. Az. Time Alt. Az. Time Alt. Az.
06 Jun - 01:18:19 10° SSW 01:23:15 62° ESE 01:28:44 10° NE visible
06 Jun - 03:02:08 10° W 03:06:24 24° NW 03:10:58 10° NNE visible
06 Jun - 08:19:04 10° N 08:22:47 16° NE 08:26:30 10° ENE visible
06 Jun - 10:00:33 10° NNW 10:06:38 63° NE 10:12:40 10° SE daylight
06 Jun - 11:44:05 10° NW 11:48:49 24° WSW 11:53:30 10° SSW daylight
07 Jun - 00:36:21 10° S 00:40:53 36° ESE 00:45:52 10° NE daylight
07 Jun - 02:18:43 10° WSW 02:23:28 36° NW 02:28:41 10° NNE visible
07 Jun - 04:07:42 10° NNW 04:07:57 10° NNW 04:08:11 10° NNW visible
07 Jun - 07:37:22 10° N 07:39:34 12° NNE 07:41:46 10° NE visible
07 Jun - 09:18:07 10° NNW 09:23:53 42° NE 09:29:38 10° ESE daylight
07 Jun - 11:00:54 10° NW 11:06:31 39° WSW 11:12:03 10° S daylight
07 Jun - 23:54:57 10° SSE 23:58:39 21° ESE 00:02:36 10° ENE daylight
08 Jun - 01:35:40 10° SW 01:40:42 57° NW 01:46:16 10° NNE visible
08 Jun - 03:21:56 10° WNW 03:24:41 14° NNW 03:27:33 10° N visible
08 Jun - 08:35:48 10° NNW 08:41:00 29° NE 08:46:14 10° ESE visible
08 Jun - 10:18:04 10° NW 10:24:07 63° WSW 10:30:04 10° SSE daylight
08 Jun - 23:14:57 10° ESE 23:16:31 11° E 23:18:09 10° E daylight
09 Jun - 00:53:00 10° SSW 00:58:04 87° ESE 01:03:43 10° NNE visible
09 Jun - 02:37:44 10° W 02:41:33 19° NW 02:45:37 10° N visible
09 Jun - 07:53:36 10° N 07:58:01 20° NE 08:02:26 10° E visible
09 Jun - 09:35:24 10° NNW 09:41:34 84° ENE 09:47:39 10° SSE daylight
09 Jun - 11:19:43 10° WNW 11:23:28 17° WSW 11:27:12 10° SW daylight
10 Jun - 00:10:44 10° S 00:15:36 51° ESE 00:21:00 10° NE daylight
10 Jun - 01:54:02 10° WSW 01:58:33 28° NW 02:03:25 10° NNE visible
10 Jun - 07:11:36 10° N 07:14:52 15° NNE 07:18:10 10° ENE visible
10 Jun - 08:52:54 10° NNW 08:58:54 55° NE 09:04:52 10° SE daylight
10 Jun - 10:36:08 10° NW 10:41:15 28° WSW 10:46:16 10° SSW daylight
10 Jun - 23:28:55 10° SSE 23:33:16 30° ESE 23:38:01 10° NE daylight
11 Jun - 01:10:46 10° WSW 01:15:41 42° NW 01:21:05 10° NNE visible
11 Jun - 02:58:15 10° NW 02:59:59 11° NNW 03:01:47 10° N visible
11 Jun - 06:30:13 10° NNE 06:31:37 11° NNE 06:33:02 10° NE visible
11 Jun - 08:10:30 10° NNW 08:16:07 36° NE 08:21:42 10° ESE visible
11 Jun - 09:53:06 10° NW 09:58:54 46° WSW 10:04:37 10° S daylight
11 Jun - 22:47:49 10° SE 22:51:05 17° ESE 22:54:32 10° ENE daylight
12 Jun - 00:27:51 10° SW 00:32:57 68° WNW 00:38:38 10° NNE daylight
12 Jun - 02:13:32 10° WNW 02:16:46 16° NW 02:20:10 10° N visible
12 Jun - 07:28:13 10° NNW 07:33:12 25° NE 07:38:10 10° E visible
12 Jun - 09:10:19 10° NW 09:16:27 74° WSW 09:22:28 10° SSE daylight
12 Jun - 10:56:06 10° W 10:58:03 12° W 11:00:00 10° WSW daylight
12 Jun - 23:45:18 10° SSW 23:50:23 73° ESE 23:56:02 10° NE daylight
13 Jun - 01:29:33 10° W 01:33:41 22° NW 01:38:06 10° N visible
13 Jun - 06:46:04 10° N 06:50:09 18° NE 06:54:14 10° ENE visible
13 Jun - 08:27:43 10° NNW 08:33:52 73° ENE 08:39:55 10° SE visible
13 Jun - 10:11:35 10° WNW 10:15:55 20° WSW 10:20:11 10° SSW daylight
13 Jun - 23:03:10 10° S 23:07:57 43° ESE 23:13:14 10° NE daylight
14 Jun - 00:46:00 10° WSW 00:50:43 32° NW 00:55:51 10° NNE daylight
14 Jun - 06:04:11 10° N 06:06:58 13° NNE 06:09:46 10° ENE visible
14 Jun - 07:45:15 10° NNW 07:51:10 47° NE 07:56:59 10° SE visible
14 Jun - 09:28:15 10° NW 09:33:39 33° WSW 09:38:57 10° S daylight
14 Jun - 22:21:34 10° SSE 22:25:41 25° ESE 22:30:06 10° NE daylight
15 Jun - 00:02:51 10° SW 00:07:55 50° NW 00:13:29 10° NNE daylight
15 Jun - 01:49:35 10° NW 01:52:03 13° NNW 01:54:35 10° N visible
15 Jun - 07:02:54 10° NNW 07:08:19 32° NE 07:13:43 10° ESE visible
15 Jun - 08:45:19 10° NW 08:51:17 54° WSW 08:57:06 10° S daylight
15 Jun - 21:40:52 10° SE 21:43:32 14° ESE 21:46:19 10° ENE daylight
15 Jun - 23:20:04 10° SSW 23:25:14 81° WNW 23:30:58 10° NNE daylight
